Wind_Speed
12 12 13 13 13 13 14 14 14 14 15 15 14 14 14 14 13 12 11 9 8 7 6 5 5 5 6 7 9 11 13 14 16 17 19 20 21 22 22 23 25 26 26
13 13 14 14 14 14 14 14 14 15 15 14 14 13 13 13 13 12 11 10 9 7 6 6 5 5 6 6 8 10 12 14 15 16 18 19 20 22 22 23 24 25 26
14 14 15 15 15 15 15 15 15 15 15 14 14 14 13 13 13 12 12 11 9 8 7 6 5 4 5 6 7 10 11 13 14 15 16 17 19 20 22 23 23 24 26
14 15 15 16 16 16 16 16 15 15 15 15 14 14 14 14 13 12 12 11 10 8 7 6 5 5 5 6 7 8 10 12 13 15 16 17 18 20 21 22 23 23 24
15 16 16 17 17 17 17 17 16 16 16 16 15 14 14 14 13 13 12 11 10 9 8 7 6 6 7 7 7 9 10 11 12 13 15 16 18 19 21 21 22 22 23
17 17 18 18 18 18 18 18 18 17 17 17 16 15 15 14 14 14 13 12 11 10 9 9 8 8 8 8 8 9 10 11 12 13 14 15 16 18 20 21 21 22 23
19 19 19 19 19 19 19 19 19 19 18 18 18 17 16 16 15 14 14 13 12 11 11 10 9 8 9 9 10 10 10 11 12 13 14 14 16 18 18 20 21 21 22
21 21 21 21 21 21 21 21 21 20 20 19 19 19 18 17 17 16 15 15 14 13 12 12 11 10 10 10 11 11 12 12 13 14 14 14 15 17 18 19 21 21 22
23 23 23 23 23 23 23 23 23 23 22 22 21 21 20 20 19 18 18 17 16 15 15 14 13 12 12 11 12 12 13 13 14 15 15 15 16 17 19 19 20 21 21
26 26 26 26 26 26 25 25 26 25 25 24 24 23 23 23 22 21 20 19 19 18 17 16 15 15 14 13 14 14 14 15 15 15 16 17 18 18 18 19 20 20 21
29 29 29 29 29 29 29 28 28 28 28 27 27 26 26 25 25 24 23 22 21 21 20 19 18 17 17 16 16 16 16 16 17 17 17 18 19 19 20 20 21 21 22
33 33 33 33 33 33 32 32 31 31 31 31 30 30 29 28 27 26 26 25 24 23 23 21 20 20 20 19 18 18 19 19 19 19 19 20 20 21 21 22 22 23 23
36 36 36 36 36 36 36 35 35 34 34 33 33 32 31 30 29 29 29 28 27 26 25 24 24 23 23 22 22 21 22 22 21 21 21 22 22 23 23 23 24 24 24
40 40 40 40 39 39 39 38 38 37 36 36 35 34 33 32 32 32 32 31 30 30 29 28 27 26 26 25 25 25 24 24 24 24 24 24 24 24 25 25 25 25 26
43 43 43 43 43 42 41 41 40 39 39 38 38 38 37 36 35 35 34 34 34 33 32 31 30 30 29 29 28 27 27 27 27 26 27 27 26 26 26 26 26 26 27
46 46 46 46 45 45 44 44 43 42 42 42 41 41 40 39 38 37 37 37 36 36 35 34 33 33 32 31 30 30 29 29 29 29 29 28 28 28 28 28 28 28 28
48 48 48 48 47 47 46 46 45 44 44 43 43 43 42 42 41 41 40 39 39 38 38 37 36 35 35 34 33 32 32 31 31 31 30 30 30 29 29 29 29 30 30
49 49 49 49 48 48 47 47 46 46 45 45 45 45 44 44 44 43 43 42 41 40 40 39 38 38 37 36 35 35 34 33 33 32 32 32 32 31 31 31 31 31 31
51 51 51 51 50 49 48 48 48 48 48 47 47 47 46 46 46 46 45 45 43 42 42 41 40 39 39 38 37 36 36 35 35 35 34 34 33 33 32 32 32 32 32
53 52 52 51 50 50 49 49 49 49 49 49 48 48 48 48 48 47 47 46 45 43 43 42 42 41 40 39 38 37 37 36 36 36 36 35 35 34 34 33 33 33 33
53 52 51 51 50 50 50 50 51 50 49 48 48 48 48 48 48 48 47 47 46 45 44 44 43 42 42 41 39 38 38 38 37 37 37 37 36 35 35 34 34 34 34
53 53 52 51 51 50 50 50 50 50 50 49 48 47 48 48 48 47 47 46 46 46 45 45 45 43 43 42 40 39 39 38 38 38 38 38 37 37 36 35 35 35 34
53 53 53 52 51 50 49 49 49 49 49 48 48 48 47 47 47 47 47 46 46 45 45 46 45 44 43 43 42 41 39 39 39 38 38 38 38 37 37 36 36 36 35
52 52 51 51 50 49 48 47 47 48 48 47 48 48 47 46 46 46 45 45 46 45 45 46 45 45 44 43 42 42 41 40 40 40 39 39 38 37 37 36 36 35 35
50 49 49 48 48 47 46 45 46 46 47 47 47 47 47 47 46 45 45 45 45 45 45 45 44 44 43 42 42 42 42 42 41 40 39 39 38 37 37 36 36 36 35
48 48 47 47 47 46 46 45 45 45 46 46 47 47 47 46 45 45 44 44 44 44 44 44 44 44 43 43 42 41 41 41 41 40 38 38 38 37 37 37 36 36 36
Wind_Direction
299 301 304 307 310 314 319 324 327 331 335 340 343 346 349 351 350 348 347 343 337 329 319 309 291 267 249 244 230 226 227 227 227 228 227 226 225 225 227 229 228 228 230
297 299 300 303 306 309 314 318 322 326 330 333 336 339 343 345 347 346 344 340 337 334 327 317 301 279 257 250 234 229 229 228 230 231 230 228 227 228 229 229 229 231 232
296 297 298 300 302 304 308 312 316 320 324 326 329 332 336 340 342 343 344 341 336 332 327 322 306 285 265 260 241 235 232 230 230 232 231 231 230 231 231 232 232 233 235
297 298 297 297 298 300 302 306 310 314 317 319 321 325 328 332 335 337 338 340 338 333 324 316 301 283 270 265 250 242 237 235 233 234 234 234 233 233 233 234 235 236 237
298 298 298 297 297 298 299 301 303 307 310 312 313 316 320 324 327 328 328 330 331 330 324 313 302 288 275 271 260 249 242 239 239 239 236 236 234 235 236 236 238 239 241
297 297 297 297 297 297 297 298 299 301 303 306 308 309 311 314 317 319 319 320 320 319 316 314 304 292 281 273 265 255 246 241 241 239 238 238 236 237 238 238 240 240 243
296 296 295 295 296 296 295 296 297 297 298 300 301 302 304 306 307 309 310 309 309 308 307 304 303 294 285 276 266 258 251 245 244 243 239 241 241 239 240 241 242 244 247
295 295 295 294 294 293 292 293 293 294 295 295 296 297 298 299 300 299 300 301 300 300 299 296 294 290 286 279 269 262 257 251 248 247 243 244 245 243 243 245 246 246 247
293 293 293 293 292 291 290 290 290 290 291 291 292 292 292 292 293 293 292 292 292 292 290 290 287 284 283 279 272 266 261 257 254 252 250 249 249 248 247 247 249 250 252
290 290 290 289 289 288 287 287 287 287 288 288 288 287 287 287 287 286 286 286 285 286 284 284 283 280 277 275 272 268 264 261 258 256 255 255 254 254 253 252 253 254 255
288 287 287 287 286 285 284 285 285 285 285 285 285 284 283 282 282 281 280 281 281 280 280 278 277 275 273 271 269 267 265 263 260 258 258 258 258 259 258 257 257 257 259
287 287 286 286 285 284 282 282 282 283 283 283 283 282 281 279 278 276 275 275 275 275 275 274 272 271 271 270 268 266 264 263 263 262 261 260 260 261 262 261 261 261 262
286 286 285 284 284 282 281 281 281 281 281 281 280 279 277 276 275 273 271 270 270 271 271 270 268 267 267 267 266 265 264 264 263 263 263 262 262 262 263 263 262 261 261
285 285 285 284 283 281 280 280 279 278 277 278 277 277 275 274 273 271 270 268 267 267 268 268 267 266 265 266 265 265 265 265 264 263 263 263 264 263 263 264 264 263 262
285 285 285 284 283 282 279 277 276 275 274 274 274 274 274 273 271 270 269 268 266 265 265 265 265 265 264 265 265 265 265 264 265 265 264 265 265 265 265 264 264 265 265
284 284 284 284 283 281 279 276 274 273 273 272 272 272 272 271 270 268 267 267 265 264 263 264 264 264 264 264 265 265 265 265 264 264 265 265 264 265 265 266 266 266 266
283 283 283 283 282 281 279 276 273 272 271 270 270 270 269 269 267 266 265 265 264 262 262 262 262 262 263 263 263 264 264 264 264 264 264 265 264 264 265 265 266 267 267
283 282 282 281 280 279 277 274 272 271 269 268 268 268 267 267 265 264 263 263 262 261 260 260 260 261 261 262 263 263 263 263 263 264 263 263 264 265 265 265 266 267 267
283 283 282 280 278 276 274 272 271 271 270 269 268 267 266 265 264 263 263 262 261 260 258 257 258 259 260 261 261 262 262 262 262 262 263 263 264 264 265 265 265 266 266
284 283 281 279 277 275 273 272 271 270 270 269 268 266 265 264 263 262 262 262 261 259 257 256 256 257 258 259 259 260 260 261 261 261 262 262 263 264 265 265 265 266 267
284 283 281 279 277 275 273 271 270 269 269 269 268 266 264 264 263 261 260 260 259 259 256 255 255 255 256 257 258 258 259 259 260 261 262 262 262 264 265 265 266 266 267
284 282 281 279 278 276 273 272 270 269 269 268 267 265 264 264 262 261 260 259 258 258 256 254 253 253 254 255 255 256 257 258 259 260 262 263 263 264 265 265 266 267 267
284 282 280 279 278 276 274 272 270 268 268 267 266 264 263 263 262 260 259 257 255 255 254 253 253 253 253 254 254 254 255 257 258 260 261 262 263 264 264 265 266 267 268
283 282 280 278 277 275 274 272 270 268 267 266 265 264 263 262 261 258 257 256 254 253 253 252 252 253 253 254 254 253 254 256 257 258 259 260 260 261 262 264 265 266 267
284 282 280 277 276 274 274 272 270 268 266 266 265 263 262 260 259 257 255 255 254 253 252 251 251 252 252 253 253 253 254 255 256 256 257 258 258 259 260 261 263 264 265
284 283 280 277 275 274 273 272 270 269 267 266 265 263 261 259 257 256 254 253 252 251 250 250 250 251 251 252 254 253 253 253 254 254 256 256 256 258 259 260 261 263 264
Height
5834 5833 5832 5830 5828 5827 5824 5822 5820 5817 5814 5811 5809 5806 5803 5800 5797 5794 5792 5790 5788 5786 5784 5783 5782 5781 5782 5782 5783 5784 5785 5787 5789 5791 5793 5795 5798 5801 5803 5806 5808 5811 5814
5832 5830 5829 5828 5826 5824 5822 5820 5818 5815 5813 5810 5808 5805 5802 5800 5797 5794 5791 5789 5787 5785 5783 5782 5781 5780 5780 5781 5781 5782 5783 5785 5786 5788 5790 5792 5794 5797 5799 5801 5804 5806 5809
5828 5827 5826 5824 5823 5821 5819 5818 5816 5813 5811 5808 5806 5804 5801 5799 5796 5793 5791 5788 5786 5784 5783 5781 5780 5779 5779 5779 5779 5780 5781 5782 5783 5785 5786 5788 5791 5793 5795 5797 5799 5802 5804
5825 5824 5822 5821 5819 5818 5816 5814 5813 5811 5809 5806 5804 5802 5800 5797 5795 5792 5790 5788 5786 5784 5782 5780 5779 5778 5778 5778 5778 5778 5779 5779 5781 5782 5784 5785 5787 5789 5791 5793 5795 5797 5799
5822 5820 5819 5817 5816 5814 5813 5811 5809 5808 5806 5804 5802 5800 5798 5796 5793 5791 5789 5787 5784 5783 5781 5779 5778 5777 5777 5776 5776 5776 5777 5777 5778 5779 5780 5782 5783 5785 5787 5788 5790 5792 5793
5818 5816 5815 5813 5812 5810 5809 5807 5806 5804 5802 5800 5799 5797 5795 5793 5791 5789 5787 5785 5783 5781 5779 5778 5777 5776 5775 5774 5774 5774 5774 5775 5775 5776 5777 5778 5779 5781 5782 5784 5785 5787 5789
5814 5812 5811 5809 5808 5806 5805 5803 5802 5800 5798 5797 5795 5793 5792 5790 5788 5786 5784 5783 5781 5779 5777 5776 5774 5773 5773 5772 5772 5771 5771 5772 5772 5773 5773 5774 5775 5777 5778 5779 5780 5782 5783
5809 5807 5806 5804 5803 5801 5800 5798 5797 5795 5794 5792 5790 5789 5787 5786 5785 5783 5781 5779 5778 5776 5774 5773 5772 5771 5770 5769 5769 5769 5768 5769 5769 5769 5770 5771 5771 5772 5773 5775 5775 5776 5777
5803 5801 5800 5799 5797 5796 5794 5793 5791 5790 5788 5787 5785 5784 5782 5781 5780 5778 5777 5775 5774 5773 5771 5770 5769 5768 5767 5766 5766 5765 5765 5765 5765 5765 5766 5766 5767 5768 5768 5769 5770 5771 5772
5796 5795 5793 5792 5790 5789 5787 5786 5785 5783 5782 5780 5779 5777 5776 5775 5774 5773 5771 5770 5769 5768 5767 5766 5765 5764 5763 5762 5762 5761 5761 5761 5761 5761 5762 5762 5762 5763 5763 5764 5765 5765 5766
5788 5787 5785 5783 5782 5780 5779 5778 5777 5776 5774 5773 5772 5770 5769 5768 5767 5766 5764 5764 5763 5762 5761 5760 5760 5759 5758 5757 5757 5757 5757 5756 5757 5757 5757 5757 5757 5757 5758 5758 5759 5759 5760
5778 5777 5776 5774 5772 5771 5770 5769 5767 5766 5765 5764 5762 5761 5760 5759 5758 5758 5757 5756 5756 5755 5754 5754 5754 5753 5752 5752 5752 5751 5751 5751 5751 5751 5751 5751 5751 5752 5752 5752 5752 5753 5753
5767 5766 5764 5763 5761 5760 5759 5758 5757 5755 5754 5753 5752 5751 5750 5749 5749 5748 5748 5747 5747 5747 5747 5747 5746 5746 5745 5745 5745 5745 5744 5744 5744 5745 5745 5745 5745 5745 5745 5745 5746 5746 5746
5755 5753 5751 5750 5748 5747 5746 5745 5744 5743 5742 5742 5741 5740 5740 5739 5739 5738 5737 5737 5737 5737 5737 5738 5738 5737 5737 5737 5737 5737 5737 5737 5737 5737 5737 5737 5737 5738 5738 5738 5738 5738 5739
5742 5740 5738 5736 5735 5733 5732 5731 5731 5730 5729 5729 5729 5728 5728 5728 5728 5727 5726 5727 5727 5727 5727 5727 5728 5728 5728 5728 5729 5729 5729 5729 5729 5729 5729 5729 5730 5730 5730 5730 5730 5730 5730
5727 5725 5723 5721 5719 5718 5717 5716 5716 5716 5715 5715 5714 5714 5715 5715 5715 5715 5715 5715 5715 5715 5715 5716 5717 5718 5718 5719 5719 5720 5720 5720 5720 5720 5720 5721 5721 5721 5721 5721 5721 5721 5722
5711 5709 5707 5705 5703 5701 5700 5699 5700 5700 5700 5699 5699 5699 5700 5700 5701 5701 5701 5701 5702 5702 5703 5705 5706 5707 5707 5708 5709 5709 5710 5710 5710 5711 5711 5711 5711 5712 5712 5712 5712 5712 5713
5694 5692 5690 5688 5686 5684 5683 5682 5682 5683 5684 5684 5684 5684 5684 5684 5685 5685 5686 5686 5688 5689 5690 5692 5693 5694 5695 5696 5697 5698 5699 5699 5700 5700 5700 5701 5701 5702 5702 5702 5702 5703 5703
5677 5675 5673 5670 5669 5667 5666 5665 5665 5665 5666 5667 5667 5668 5668 5668 5669 5669 5670 5671 5673 5674 5676 5678 5679 5681 5683 5684 5685 5686 5687 5688 5688 5689 5689 5690 5691 5691 5692 5692 5692 5692 5693
5659 5657 5654 5652 5651 5650 5649 5648 5648 5648 5648 5649 5649 5650 5651 5651 5652 5653 5654 5655 5657 5659 5661 5663 5665 5667 5669 5671 5672 5673 5674 5675 5676 5677 5678 5679 5679 5680 5681 5681 5681 5682 5682
5641 5639 5636 5634 5633 5632 5631 5630 5630 5630 5630 5631 5632 5632 5633 5633 5634 5636 5637 5639 5641 5643 5645 5647 5650 5652 5655 5657 5658 5660 5661 5663 5664 5665 5666 5667 5668 5669 5669 5670 5670 5670 5671
5622 5620 5618 5616 5615 5613 5612 5612 5611 5612 5612 5613 5613 5614 5615 5616 5617 5619 5621 5623 5625 5627 5629 5632 5634 5637 5640 5642 5644 5646 5648 5649 5651 5652 5653 5655 5656 5657 5657 5658 5659 5659 5659
5603 5601 5599 5597 5596 5595 5594 5593 5593 5593 5594 5595 5596 5597 5598 5599 5600 5602 5604 5607 5609 5611 5613 5616 5619 5622 5625 5627 5630 5632 5635 5636 5638 5640 5641 5642 5643 5644 5645 5646 5647 5647 5648
5585 5582 5580 5579 5577 5577 5576 5575 5575 5575 5576 5577 5578 5579 5581 5582 5584 5586 5588 5591 5593 5595 5598 5601 5604 5607 5610 5612 5615 5618 5620 5622 5624 5626 5627 5629 5630 5631 5633 5634 5635 5635 5636
5566 5564 5562 5560 5559 5559 5558 5558 5558 5558 5558 5559 5560 5562 5564 5566 5568 5570 5572 5575 5577 5580 5583 5586 5589 5592 5595 5598 5600 5603 5606 5608 5610 5612 5614 5615 5617 5618 5620 5621 5622 5623 5624
5549 5547 5544 5543 5542 5542 5541 5541 5541 5541 5541 5542 5543 5545 5546 5549 5551 5554 5556 5559 5562 5565 5568 5572 5575 5578 5580 5583 5586 5589 5591 5593 5596 5598 5600 5602 5604 5606 5607 5609 5610 5611 5611